QPF
0.01 0.01 0.01 0.01 0.02 0.02 0.03 0.04 0.04 0.03 0.02 0.03 0.03 0.03 0.03 0.02 0.02 0.03 0.03 0.03 0.03 0.02 0.02 0.01 0.01 0.02 0.02 0.02 0.02 0.02 0.02 0.02 0.02 0.02 0.02 0.03 0.03 0.02 0.02 0.02 0.02 0.02 0.01 0.01
0.01 0.01 0.00 0.01 0.01 0.02 0.02 0.02 0.03 0.02 0.02 0.02 0.03 0.03 0.03 0.03 0.02 0.02 0.03 0.03 0.03 0.03 0.03 0.02 0.01 0.01 0.01 0.02 0.02 0.02 0.02 0.02 0.02 0.02 0.02 0.03 0.03 0.03 0.03 0.02 0.02 0.02 0.01 0.01
0.01 0.01 0.01 0.02 0.02 0.02 0.03 0.03 0.03 0.03 0.03 0.02 0.02 0.03 0.05 0.05 0.03 0.02 0.02 0.02 0.02 0.02 0.03 0.03 0.02 0.02 0.02 0.02 0.02 0.02 0.02 0.02 0.02 0.02 0.02 0.03 0.04 0.03 0.03 0.02 0.02 0.02 0.02 0.02
0.01 0.01 0.02 0.03 0.02 0.02 0.02 0.03 0.03 0.03 0.03 0.02 0.02 0.03 0.05 0.05 0.04 0.03 0.02 0.01 0.02 0.01 0.02 0.02 0.02 0.03 0.03 0.02 0.02 0.02 0.02 0.02 0.02 0.02 0.03 0.03 0.03 0.03 0.03 0.02 0.02 0.02 0.01 0.01
0.01 0.01 0.02 0.02 0.01 0.02 0.02 0.03 0.03 0.02 0.02 0.02 0.02 0.02 0.03 0.02 0.02 0.02 0.02 0.02 0.01 0.01 0.02 0.02 0.02 0.03 0.03 0.03 0.03 0.03 0.02 0.02 0.02 0.02 0.02 0.02 0.03 0.03 0.02 0.02 0.02 0.02 0.02 0.01
0.02 0.02 0.02 0.02 0.01 0.02 0.03 0.03 0.02 0.02 0.02 0.02 0.01 0.02 0.02 0.02 0.02 0.02 0.02 0.02 0.02 0.02 0.02 0.02 0.02 0.02 0.02 0.02 0.02 0.03 0.02 0.02 0.02 0.02 0.02 0.02 0.02 0.02 0.02 0.02 0.02 0.02 0.02 0.01
0.02 0.02 0.02 0.02 0.01 0.01 0.03 0.04 0.02 0.02 0.02 0.02 0.02 0.02 0.02 0.02 0.02 0.03 0.03 0.02 0.02 0.02 0.02 0.02 0.02 0.01 0.01 0.01 0.02 0.02 0.02 0.02 0.02 0.02 0.02 0.02 0.02 0.02 0.02 0.02 0.02 0.02 0.01 0.02
0.02 0.02 0.03 0.02 0.01 0.02 0.03 0.02 0.02 0.02 0.02 0.02 0.02 0.02 0.02 0.02 0.03 0.02 0.02 0.02 0.02 0.01 0.01 0.01 0.01 0.01 0.01 0.01 0.01 0.01 0.02 0.02 0.01 0.02 0.02 0.02 0.02 0.02 0.02 0.02 0.02 0.01 0.01 0.01
0.02 0.02 0.03 0.02 0.02 0.02 0.02 0.02 0.02 0.02 0.02 0.02 0.02 0.02 0.02 0.02 0.02 0.02 0.02 0.02 0.02 0.01 0.01 0.01 0.01 0.01 0.01 0.01 0.01 0.01 0.01 0.02 0.02 0.02 0.02 0.02 0.02 0.02 0.02 0.02 0.02 0.01 0.01 0.01
0.01 0.01 0.01 0.01 0.01 0.01 0.01 0.02 0.02 0.02 0.02 0.02 0.02 0.02 0.02 0.01 0.01 0.01 0.01 0.01 0.01 0.01 0.01 0.01 0.01 0.01 0.01 0.01 0.01 0.01 0.01 0.01 0.02 0.02 0.02 0.03 0.02 0.02 0.02 0.01 0.01 0.01 0.01 0.01
0.01 0.01 0.01 0.01 0.01 0.01 0.01 0.01 0.01 0.01 0.01 0.02 0.02 0.02 0.02 0.02 0.02 0.01 0.01 0.01 0.01 0.01 0.01 0.01 0.01 0.01 0.01 0.01 0.01 0.01 0.01 0.01 0.02 0.02 0.02 0.03 0.02 0.02 0.01 0.01 0.01 0.02 0.02 0.01
0.01 0.01 0.01 0.01 0.01 0.01 0.01 0.01 0.01 0.01 0.01 0.02 0.02 0.02 0.02 0.02 0.02 0.02 0.01 0.01 0.01 0.01 0.01 0.01 0.01 0.01 0.01 0.01 0.01 0.01 0.01 0.01 0.02 0.02 0.02 0.02 0.02 0.02 0.01 0.01 0.01 0.02 0.02 0.02
0.02 0.01 0.01 0.01 0.01 0.01 0.01 0.01 0.01 0.01 0.01 0.01 0.01 0.01 0.01 0.02 0.02 0.02 0.02 0.02 0.02 0.01 0.02 0.02 0.01 0.01 0.01 0.01 0.01 0.01 0.01 0.02 0.02 0.02 0.02 0.01 0.01 0.02 0.02 0.02 0.02 0.02 0.02 0.02
0.01 0.01 0.01 0.01 0.01 0.01 0.01 0.01 0.01 0.01 0.01 0.01 0.01 0.01 0.01 0.01 0.01 0.02 0.02 0.02 0.02 0.02 0.02 0.02 0.02 0.01 0.01 0.02 0.02 0.02 0.02 0.02 0.02 0.02 0.02 0.02 0.02 0.02 0.02 0.02 0.02 0.02 0.01 0.01
0.01 0.01 0.01 0.01 0.01 0.01 0.01 0.01 0.01 0.01 0.01 0.01 0.01 0.01 0.01 0.01 0.01 0.01 0.02 0.02 0.02 0.02 0.02 0.02 0.02 0.02 0.02 0.02 0.03 0.03 0.02 0.02 0.02 0.02 0.02 0.02 0.02 0.02 0.02 0.02 0.02 0.02 0.02 0.02
0.01 0.01 0.01 0.01 0.01 0.01 0.01 0.01 0.01 0.01 0.01 0.01 0.01 0.01 0.01 0.01 0.01 0.01 0.01 0.01 0.02 0.02 0.02 0.02 0.03 0.03 0.03 0.03 0.03 0.03 0.03 0.03 0.03 0.03 0.03 0.02 0.02 0.02 0.02 0.02 0.02 0.02 0.02 0.02
0.01 0.01 0.01 0.01 0.01 0.01 0.01 0.01 0.01 0.01 0.01 0.01 0.01 0.01 0.01 0.01 0.01 0.01 0.01 0.02 0.02 0.02 0.02 0.02 0.03 0.03 0.03 0.03 0.03 0.02 0.03 0.03 0.03 0.03 0.03 0.02 0.02 0.02 0.02 0.02 0.02 0.02 0.01 0.01
0.01 0.01 0.01 0.01 0.01 0.01 0.01 0.01 0.01 0.01 0.01 0.01 0.01 0.01 0.01 0.01 0.01 0.01 0.01 0.01 0.01 0.02 0.02 0.02 0.03 0.03 0.03 0.03 0.03 0.02 0.02 0.02 0.02 0.02 0.02 0.02 0.02 0.02 0.02 0.02 0.02 0.01 0.01 0.02
0.01 0.01 0.01 0.01 0.01 0.01 0.01 0.01 0.01 0.01 0.01 0.01 0.01 0.01 0.01 0.01 0.01 0.01 0.01 0.01 0.01 0.01 0.02 0.02 0.03 0.02 0.02 0.02 0.02 0.02 0.02 0.02 0.02 0.02 0.02 0.02 0.02 0.02 0.02 0.02 0.02 0.02 0.02 0.02
0.01 0.01 0.01 0.01 0.01 0.01 0.01 0.01 0.01 0.01 0.01 0.01 0.01 0.00 0.01 0.01 0.01 0.01 0.01 0.01 0.02 0.02 0.02 0.02 0.02 0.01 0.01 0.01 0.02 0.02 0.02 0.02 0.02 0.02 0.02 0.02 0.02 0.02 0.02 0.02 0.02 0.02 0.02 0.02
0.00 0.00 0.01 0.01 0.01 0.01 0.01 0.01 0.01 0.01 0.01 0.01 0.01 0.01 0.01 0.01 0.01 0.01 0.01 0.01 0.01 0.02 0.02 0.01 0.01 0.01 0.01 0.02 0.02 0.02 0.01 0.01 0.01 0.02 0.02 0.02 0.02 0.02 0.02 0.02 0.02 0.02 0.02 0.02
0.00 0.00 0.00 0.00 0.01 0.01 0.01 0.01 0.01 0.01 0.01 0.01 0.01 0.01 0.01 0.01 0.01 0.01 0.01 0.01 0.01 0.02 0.02 0.01 0.01 0.02 0.02 0.03 0.02 0.01 0.01 0.01 0.01 0.01 0.01 0.02 0.02 0.02 0.02 0.02 0.01 0.01 0.02 0.02
0.00 0.00 0.00 0.00 0.00 0.01 0.00 0.00 0.00 0.01 0.01 0.01 0.01 0.01 0.01 0.01 0.01 0.01 0.01 0.01 0.01 0.02 0.02 0.02 0.02 0.02 0.03 0.02 0.01 0.01 0.01 0.01 0.01 0.01 0.01 0.01 0.01 0.01 0.01 0.01 0.01 0.01 0.01 0.01
0.00 0.00 0.00 0.00 0.00 0.00 0.00 0.00 0.00 0.00 0.01 0.01 0.01 0.01 0.01 0.01 0.01 0.01 0.01 0.01 0.01 0.02 0.01 0.02 0.02 0.02 0.02 0.01 0.01 0.01 0.01 0.01 0.01 0.01 0.01 0.01 0.01 0.01 0.01 0.01 0.01 0.01 0.01 0.01
0.00 0.00 0.00 0.00 0.00 0.00 0.00 0.00 0.00 0.00 0.00 0.00 0.00 0.01 0.01 0.01 0.01 0.01 0.01 0.01 0.01 0.01 0.01 0.01 0.01 0.01 0.01 0.01 0.01 0.01 0.01 0.01 0.01 0.01 0.01 0.01 0.01 0.01 0.01 0.01 0.01 0.01 0.01 0.01
0.00 0.00 0.00 0.00 0.00 0.00 0.00 0.00 0.00 0.00 0.00 0.00 0.00 0.01 0.01 0.01 0.01 0.01 0.01 0.01 0.01 0.01 0.01 0.01 0.01 0.01 0.01 0.01 0.01 0.01 0.01 0.01 0.01 0.01 0.01 0.01 0.01 0.01 0.01 0.01 0.01 0.01 0.01 0.01
0.00 0.00 0.00 0.00 0.00 0.00 0.00 0.00 0.00 0.00 0.00 0.01 0.01 0.01 0.01 0.01 0.01 0.01 0.01 0.01 0.01 0.01 0.01 0.01 0.01 0.01 0.01 0.01 0.01 0.01 0.01 0.01 0.01 0.01 0.01 0.01 0.01 0.01 0.01 0.01 0.01 0.01 0.01 0.01
MSLP
1023.20 1024.24 1025.35 1026.50 1027.68 1028.87 1030.07 1031.29 1032.51 1033.73 1034.91 1036.04 1037.07 1037.97 1038.71 1039.29 1039.68 1039.90 1039.96 1039.87 1039.67 1039.36 1038.96 1038.47 1037.89 1037.22 1036.46 1035.63 1034.74 1033.82 1032.90 1032.03 1031.21 1030.49 1029.85 1029.32 1028.85 1028.44 1028.05 1027.66 1027.24 1026.79 1026.29 1025.75
1024.48 1025.77 1027.14 1028.53 1029.89 1031.21 1032.47 1033.65 1034.76 1035.80 1036.77 1037.66 1038.45 1039.14 1039.70 1040.12 1040.40 1040.53 1040.53 1040.38 1040.11 1039.73 1039.25 1038.67 1038.01 1037.27 1036.46 1035.60 1034.72 1033.82 1032.95 1032.12 1031.35 1030.66 1030.05 1029.51 1029.02 1028.56 1028.10 1027.63 1027.12 1026.57 1025.98 1025.35
1025.68 1027.17 1028.74 1030.32 1031.85 1033.28 1034.59 1035.77 1036.81 1037.72 1038.52 1039.21 1039.79 1040.28 1040.65 1040.92 1041.07 1041.09 1040.99 1040.76 1040.42 1039.97 1039.42 1038.79 1038.07 1037.30 1036.47 1035.62 1034.75 1033.90 1033.07 1032.28 1031.56 1030.90 1030.30 1029.74 1029.22 1028.71 1028.18 1027.63 1027.03 1026.39 1025.70 1025.00
1026.90 1028.52 1030.22 1031.93 1033.57 1035.09 1036.45 1037.62 1038.62 1039.43 1040.10 1040.62 1041.02 1041.32 1041.52 1041.62 1041.62 1041.51 1041.31 1041.00 1040.58 1040.08 1039.48 1038.82 1038.09 1037.31 1036.50 1035.68 1034.85 1034.04 1033.26 1032.51 1031.82 1031.17 1030.57 1030.00 1029.44 1028.88 1028.29 1027.67 1026.99 1026.27 1025.52 1024.75
1028.24 1029.92 1031.68 1033.45 1035.15 1036.70 1038.07 1039.23 1040.17 1040.91 1041.45 1041.84 1042.08 1042.20 1042.23 1042.17 1042.02 1041.79 1041.48 1041.09 1040.62 1040.07 1039.46 1038.80 1038.09 1037.34 1036.57 1035.78 1035.00 1034.23 1033.48 1032.77 1032.09 1031.45 1030.84 1030.25 1029.66 1029.06 1028.43 1027.75 1027.03 1026.27 1025.46 1024.65
1029.79 1031.46 1033.21 1034.97 1036.65 1038.18 1039.51 1040.62 1041.50 1042.14 1042.57 1042.82 1042.92 1042.89 1042.76 1042.55 1042.27 1041.92 1041.52 1041.06 1040.56 1040.00 1039.40 1038.76 1038.09 1037.39 1036.67 1035.93 1035.19 1034.45 1033.73 1033.03 1032.35 1031.70 1031.07 1030.46 1029.85 1029.23 1028.57 1027.88 1027.14 1026.35 1025.53 1024.69
1031.55 1033.16 1034.84 1036.52 1038.11 1039.55 1040.80 1041.81 1042.58 1043.12 1043.43 1043.56 1043.52 1043.36 1043.10 1042.76 1042.37 1041.94 1041.47 1040.98 1040.47 1039.92 1039.36 1038.77 1038.15 1037.50 1036.83 1036.14 1035.42 1034.70 1033.98 1033.26 1032.57 1031.90 1031.25 1030.62 1030.00 1029.37 1028.72 1028.03 1027.30 1026.52 1025.70 1024.87
1033.47 1034.99 1036.55 1038.08 1039.53 1040.82 1041.92 1042.79 1043.43 1043.84 1044.04 1044.05 1043.90 1043.62 1043.26 1042.84 1042.37 1041.89 1041.39 1040.90 1040.39 1039.89 1039.37 1038.84 1038.28 1037.69 1037.06 1036.39 1035.69 1034.97 1034.23 1033.49 1032.77 1032.06 1031.39 1030.75 1030.12 1029.50 1028.87 1028.21 1027.51 1026.75 1025.96 1025.14
1035.46 1036.85 1038.24 1039.59 1040.83 1041.93 1042.84 1043.54 1044.03 1044.30 1044.38 1044.29 1044.05 1043.70 1043.28 1042.81 1042.32 1041.82 1041.33 1040.85 1040.39 1039.94 1039.48 1039.00 1038.50 1037.95 1037.36 1036.71 1036.00 1035.26 1034.50 1033.72 1032.96 1032.23 1031.53 1030.88 1030.26 1029.65 1029.05 1028.43 1027.76 1027.06 1026.30 1025.51
1037.37 1038.61 1039.81 1040.94 1041.96 1042.83 1043.52 1044.04 1044.36 1044.50 1044.47 1044.30 1044.01 1043.63 1043.19 1042.71 1042.23 1041.76 1041.31 1040.88 1040.47 1040.07 1039.67 1039.25 1038.79 1038.28 1037.70 1037.06 1036.35 1035.59 1034.79 1033.99 1033.20 1032.44 1031.73 1031.07 1030.45 1029.87 1029.30 1028.72 1028.10 1027.43 1026.71 1025.95
1039.06 1040.14 1041.14 1042.03 1042.81 1043.44 1043.92 1044.25 1044.42 1044.44 1044.34 1044.12 1043.81 1043.43 1043.02 1042.59 1042.16 1041.74 1041.35 1040.98 1040.62 1040.28 1039.93 1039.55 1039.12 1038.63 1038.06 1037.42 1036.70 1035.93 1035.12 1034.30 1033.49 1032.72 1032.01 1031.36 1030.76 1030.20 1029.66 1029.11 1028.53 1027.90 1027.21 1026.48
1040.42 1041.32 1042.11 1042.78 1043.32 1043.73 1044.01 1044.18 1044.23 1044.17 1044.02 1043.80 1043.51 1043.19 1042.83 1042.47 1042.11 1041.76 1041.43 1041.12 1040.81 1040.51 1040.19 1039.83 1039.42 1038.94 1038.39 1037.75 1037.04 1036.27 1035.47 1034.66 1033.87 1033.12 1032.42 1031.79 1031.21 1030.67 1030.16 1029.63 1029.07 1028.46 1027.80 1027.08
1041.39 1042.11 1042.70 1043.16 1043.49 1043.71 1043.84 1043.88 1043.84 1043.75 1043.60 1043.41 1043.18 1042.93 1042.66 1042.38 1042.10 1041.82 1041.55 1041.27 1041.00 1040.71 1040.40 1040.05 1039.64 1039.17 1038.63 1038.01 1037.33 1036.60 1035.83 1035.07 1034.32 1033.61 1032.95 1032.35 1031.80 1031.28 1030.78 1030.26 1029.71 1029.11 1028.45 1027.75
1041.95 1042.51 1042.92 1043.20 1043.36 1043.44 1043.45 1043.42 1043.35 1043.26 1043.15 1043.02 1042.88 1042.72 1042.54 1042.34 1042.13 1041.91 1041.67 1041.41 1041.14 1040.85 1040.53 1040.17 1039.76 1039.29 1038.77 1038.19 1037.55 1036.88 1036.19 1035.49 1034.82 1034.17 1033.57 1033.01 1032.48 1031.98 1031.48 1030.96 1030.41 1029.80 1029.15 1028.45
1042.16 1042.57 1042.83 1042.97 1043.02 1043.00 1042.96 1042.90 1042.84 1042.79 1042.74 1042.70 1042.65 1042.58 1042.49 1042.36 1042.20 1042.00 1041.77 1041.51 1041.22 1040.89 1040.55 1040.16 1039.75 1039.29 1038.80 1038.27 1037.70 1037.11 1036.51 1035.91 1035.31 1034.75 1034.20 1033.69 1033.19 1032.70 1032.19 1031.66 1031.09 1030.47 1029.81 1029.11
1042.08 1042.36 1042.51 1042.56 1042.54 1042.49 1042.44 1042.40 1042.39 1042.41 1042.44 1042.49 1042.52 1042.54 1042.51 1042.42 1042.28 1042.09 1041.84 1041.54 1041.21 1040.85 1040.46 1040.05 1039.63 1039.19 1038.73 1038.26 1037.78 1037.28 1036.77 1036.27 1035.77 1035.28 1034.79 1034.32 1033.84 1033.34 1032.83 1032.28 1031.69 1031.05 1030.38 1029.68
1041.80 1041.99 1042.08 1042.08 1042.04 1042.00 1041.98 1041.99 1042.05 1042.14 1042.26 1042.39 1042.49 1042.56 1042.56 1042.50 1042.35 1042.13 1041.85 1041.50 1041.12 1040.71 1040.28 1039.85 1039.43 1039.01 1038.60 1038.19 1037.78 1037.38 1036.97 1036.55 1036.13 1035.70 1035.26 1034.81 1034.33 1033.83 1033.29 1032.72 1032.11 1031.46 1030.78 1030.09
1041.41 1041.54 1041.59 1041.59 1041.58 1041.57 1041.60 1041.68 1041.82 1041.98 1042.17 1042.35 1042.50 1042.59 1042.60 1042.53 1042.35 1042.10 1041.76 1041.37 1040.93 1040.48 1040.03 1039.59 1039.17 1038.78 1038.42 1038.07 1037.74 1037.41 1037.07 1036.73 1036.36 1035.97 1035.55 1035.10 1034.61 1034.09 1033.53 1032.93 1032.30 1031.65 1030.97 1030.30
1040.96 1041.07 1041.13 1041.15 1041.18 1041.23 1041.33 1041.47 1041.66 1041.88 1042.11 1042.31 1042.47 1042.55 1042.55 1042.44 1042.23 1041.92 1041.54 1041.11 1040.64 1040.17 1039.71 1039.27 1038.88 1038.52 1038.20 1037.91 1037.63 1037.35 1037.07 1036.76 1036.42 1036.04 1035.62 1035.15 1034.64 1034.09 1033.50 1032.89 1032.25 1031.59 1030.94 1030.29
1040.50 1040.62 1040.70 1040.77 1040.84 1040.95 1041.10 1041.30 1041.52 1041.76 1041.99 1042.19 1042.33 1042.37 1042.32 1042.17 1041.91 1041.57 1041.16 1040.70 1040.22 1039.75 1039.30 1038.89 1038.53 1038.21 1037.93 1037.68 1037.44 1037.20 1036.93 1036.63 1036.29 1035.90 1035.46 1034.96 1034.42 1033.84 1033.23 1032.60 1031.96 1031.33 1030.70 1030.09
1040.05 1040.19 1040.31 1040.42 1040.54 1040.69 1040.88 1041.10 1041.33 1041.56 1041.76 1041.92 1042.00 1041.99 1041.88 1041.68 1041.38 1041.01 1040.58 1040.12 1039.66 1039.21 1038.80 1038.43 1038.11 1037.83 1037.59 1037.37 1037.15 1036.92 1036.65 1036.34 1035.98 1035.56 1035.08 1034.55 1033.99 1033.38 1032.76 1032.14 1031.51 1030.90 1030.30 1029.73
1039.61 1039.78 1039.92 1040.07 1040.23 1040.41 1040.61 1040.82 1041.03 1041.22 1041.36 1041.45 1041.47 1041.39 1041.23 1040.97 1040.65 1040.26 1039.83 1039.39 1038.96 1038.56 1038.19 1037.87 1037.60 1037.36 1037.15 1036.95 1036.73 1036.49 1036.21 1035.88 1035.49 1035.04 1034.54 1033.98 1033.40 1032.79 1032.17 1031.55 1030.95 1030.37 1029.81 1029.28
1039.16 1039.35 1039.52 1039.69 1039.87 1040.06 1040.25 1040.43 1040.59 1040.72 1040.80 1040.81 1040.75 1040.61 1040.39 1040.10 1039.75 1039.36 1038.95 1038.55 1038.16 1037.81 1037.49 1037.22 1036.99 1036.78 1036.59 1036.39 1036.18 1035.92 1035.62 1035.27 1034.85 1034.38 1033.86 1033.30 1032.71 1032.11 1031.51 1030.92 1030.35 1029.80 1029.27 1028.77
1038.68 1038.87 1039.06 1039.25 1039.43 1039.61 1039.78 1039.92 1040.03 1040.10 1040.10 1040.04 1039.91 1039.71 1039.44 1039.12 1038.77 1038.39 1038.01 1037.64 1037.30 1037.00 1036.73 1036.50 1036.29 1036.11 1035.92 1035.72 1035.49 1035.22 1034.90 1034.53 1034.10 1033.63 1033.11 1032.56 1031.99 1031.41 1030.84 1030.28 1029.74 1029.22 1028.72 1028.22
1038.13 1038.32 1038.52 1038.71 1038.89 1039.06 1039.20 1039.31 1039.37 1039.38 1039.33 1039.21 1039.02 1038.78 1038.48 1038.15 1037.80 1037.44 1037.09 1036.76 1036.46 1036.19 1035.95 1035.74 1035.55 1035.36 1035.17 1034.95 1034.71 1034.42 1034.09 1033.71 1033.28 1032.82 1032.32 1031.79 1031.26 1030.72 1030.19 1029.66 1029.14 1028.63 1028.13 1027.63
1037.47 1037.67 1037.87 1038.06 1038.25 1038.41 1038.53 1038.62 1038.65 1038.62 1038.53 1038.37 1038.15 1037.89 1037.59 1037.26 1036.92 1036.58 1036.26 1035.96 1035.68 1035.43 1035.21 1035.00 1034.80 1034.60 1034.38 1034.14 1033.87 1033.57 1033.22 1032.84 1032.43 1031.98 1031.51 1031.03 1030.53 1030.03 1029.53 1029.03 1028.52 1028.01 1027.50 1026.97
1036.71 1036.91 1037.11 1037.31 1037.50 1037.66 1037.79 1037.87 1037.88 1037.84 1037.74 1037.57 1037.35 1037.09 1036.80 1036.49 1036.17 1035.86 1035.56 1035.28 1035.01 1034.77 1034.53 1034.31 1034.08 1033.85 1033.59 1033.32 1033.02 1032.70 1032.34 1031.96 1031.56 1031.14 1030.70 1030.25 1029.79 1029.32 1028.84 1028.35 1027.84 1027.32 1026.77 1026.20
Thickness
5384 5387 5385 5383 5381 5379 5375 5373 5371 5372 5369 5363 5356 5355 5354 5353 5353 5355 5355 5356 5357 5357 5357 5357 5357 5359 5361 5362 5362 5362 5362 5361 5360 5359 5358 5357 5357 5357 5356 5355 5355 5354 5353 5352
5373 5375 5371 5367 5364 5364 5362 5357 5355 5356 5352 5341 5338 5337 5336 5336 5338 5340 5340 5341 5341 5342 5342 5342 5342 5343 5344 5345 5347 5347 5347 5347 5346 5345 5344 5344 5343 5344 5343 5343 5342 5342 5341 5340
5363 5362 5360 5352 5346 5344 5341 5333 5332 5335 5329 5324 5324 5325 5323 5323 5323 5324 5324 5325 5325 5325 5325 5326 5326 5328 5328 5329 5331 5333 5333 5333 5333 5332 5331 5331 5331 5331 5331 5330 5330 5330 5329 5329
5343 5346 5340 5339 5329 5328 5323 5313 5309 5311 5310 5308 5308 5308 5309 5308 5307 5307 5308 5309 5309 5310 5311 5312 5312 5313 5314 5315 5316 5318 5320 5320 5320 5319 5319 5318 5318 5319 5318 5318 5318 5318 5318 5318
5329 5325 5328 5328 5318 5310 5309 5305 5293 5294 5296 5296 5297 5300 5301 5298 5294 5293 5294 5294 5295 5296 5297 5298 5299 5300 5301 5302 5303 5304 5306 5306 5307 5307 5307 5306 5306 5307 5307 5307 5307 5307 5308 5307
5317 5318 5319 5314 5302 5300 5299 5296 5284 5281 5281 5281 5283 5287 5290 5286 5282 5281 5282 5282 5283 5285 5285 5286 5287 5288 5289 5290 5291 5292 5293 5294 5295 5295 5296 5296 5296 5295 5295 5296 5297 5297 5297 5297
5303 5299 5298 5287 5287 5293 5288 5283 5271 5268 5268 5267 5266 5266 5268 5269 5270 5271 5270 5270 5271 5273 5273 5274 5275 5276 5277 5278 5279 5280 5281 5282 5284 5284 5285 5286 5285 5285 5285 5285 5285 5285 5285 5286
5286 5287 5288 5274 5273 5268 5265 5261 5258 5257 5257 5256 5256 5257 5257 5258 5259 5260 5260 5260 5259 5260 5261 5262 5263 5263 5265 5267 5268 5269 5270 5272 5273 5273 5274 5275 5275 5274 5274 5273 5273 5273 5274 5274
5273 5275 5268 5260 5256 5252 5249 5247 5247 5246 5246 5246 5246 5246 5247 5247 5247 5247 5247 5248 5248 5248 5249 5250 5251 5252 5253 5256 5257 5259 5260 5261 5262 5263 5264 5264 5264 5264 5263 5263 5263 5264 5264 5265
5256 5259 5253 5248 5243 5240 5237 5236 5236 5235 5234 5234 5234 5235 5234 5235 5235 5235 5235 5235 5236 5236 5237 5239 5239 5240 5242 5244 5246 5247 5249 5250 5251 5252 5253 5253 5254 5255 5254 5254 5254 5255 5256 5256
5243 5242 5239 5240 5233 5230 5227 5225 5224 5224 5223 5222 5222 5222 5221 5221 5221 5222 5223 5224 5224 5224 5226 5227 5229 5230 5232 5233 5235 5236 5238 5240 5241 5242 5242 5243 5244 5244 5245 5246 5246 5247 5248 5248
5235 5232 5226 5227 5223 5220 5217 5215 5214 5213 5213 5212 5211 5210 5210 5209 5210 5210 5211 5212 5213 5214 5215 5217 5218 5220 5221 5223 5224 5225 5228 5229 5230 5231 5232 5233 5234 5235 5236 5237 5238 5239 5240 5240
5221 5218 5215 5214 5211 5209 5207 5206 5204 5203 5202 5201 5200 5199 5198 5199 5199 5200 5201 5202 5203 5204 5205 5206 5208 5210 5212 5213 5214 5215 5217 5218 5220 5221 5222 5222 5224 5225 5226 5227 5228 5229 5230 5231
5208 5206 5205 5204 5201 5198 5196 5195 5194 5192 5191 5190 5189 5188 5188 5188 5188 5189 5190 5191 5194 5195 5196 5197 5198 5200 5202 5203 5205 5206 5207 5209 5210 5211 5212 5212 5213 5214 5215 5216 5218 5219 5221 5222
5198 5196 5194 5192 5190 5188 5186 5185 5183 5182 5181 5181 5180 5178 5178 5178 5178 5179 5180 5182 5184 5185 5186 5187 5189 5191 5193 5194 5196 5197 5198 5200 5201 5202 5203 5204 5205 5205 5206 5206 5208 5209 5210 5211
5189 5186 5184 5183 5181 5179 5176 5174 5173 5172 5171 5171 5170 5170 5169 5169 5169 5170 5171 5172 5173 5175 5176 5178 5180 5182 5184 5185 5187 5188 5190 5192 5194 5195 5195 5196 5197 5197 5198 5198 5199 5199 5200 5201
5179 5178 5176 5174 5172 5169 5167 5165 5164 5163 5162 5162 5161 5161 5161 5161 5161 5162 5163 5163 5163 5164 5166 5169 5171 5173 5175 5176 5178 5179 5181 5183 5185 5186 5187 5188 5189 5189 5189 5190 5190 5191 5192 5193
5173 5171 5168 5165 5163 5161 5159 5157 5156 5155 5154 5154 5154 5153 5152 5151 5151 5152 5153 5154 5155 5156 5158 5160 5162 5164 5166 5167 5169 5171 5172 5174 5175 5176 5177 5178 5180 5181 5181 5181 5182 5182 5183 5184
5167 5164 5161 5159 5156 5153 5151 5150 5149 5148 5147 5146 5145 5144 5143 5143 5143 5143 5144 5145 5146 5147 5150 5151 5154 5155 5156 5158 5160 5162 5163 5164 5166 5167 5168 5170 5171 5171 5172 5173 5174 5174 5175 5176
5160 5158 5154 5152 5149 5146 5144 5144 5142 5141 5140 5138 5137 5136 5136 5136 5136 5136 5136 5136 5137 5139 5141 5143 5145 5146 5147 5149 5151 5153 5154 5155 5156 5157 5158 5159 5160 5162 5163 5165 5165 5166 5167 5167
5152 5149 5147 5144 5142 5140 5138 5137 5135 5134 5133 5131 5129 5128 5128 5129 5128 5128 5128 5130 5132 5133 5134 5136 5136 5137 5139 5141 5143 5143 5144 5145 5146 5147 5148 5149 5150 5152 5153 5154 5155 5157 5157 5158
5143 5141 5139 5136 5134 5133 5131 5129 5128 5127 5126 5124 5123 5121 5121 5122 5122 5122 5122 5122 5124 5126 5127 5127 5128 5130 5132 5133 5133 5133 5133 5134 5135 5136 5138 5139 5140 5142 5143 5144 5144 5146 5147 5147
5136 5134 5131 5129 5127 5125 5124 5122 5121 5119 5118 5117 5116 5115 5115 5115 5115 5114 5116 5117 5117 5118 5119 5119 5121 5123 5124 5123 5122 5123 5123 5124 5125 5126 5128 5129 5130 5131 5133 5134 5134 5135 5136 5137
5129 5127 5124 5122 5119 5117 5116 5116 5114 5113 5112 5111 5110 5109 5108 5109 5109 5107 5107 5109 5110 5111 5111 5111 5113 5114 5114 5113 5113 5113 5113 5114 5115 5116 5118 5119 5121 5122 5123 5124 5125 5126 5127 5127
5123 5120 5117 5114 5113 5112 5111 5109 5108 5107 5106 5105 5104 5103 5102 5101 5100 5101 5101 5101 5102 5103 5102 5103 5104 5105 5104 5103 5103 5103 5104 5105 5106 5107 5108 5109 5110 5111 5113 5114 5115 5116 5118 5119
5116 5114 5112 5109 5106 5105 5103 5101 5100 5099 5099 5098 5098 5097 5096 5095 5094 5094 5094 5094 5093 5094 5094 5094 5093 5094 5093 5094 5094 5094 5095 5095 5096 5096 5097 5099 5100 5101 5103 5104 5106 5107 5109 5110
5109 5107 5105 5103 5101 5098 5096 5094 5093 5092 5091 5091 5090 5090 5088 5088 5087 5087 5087 5086 5086 5086 5086 5086 5085 5085 5085 5085 5085 5085 5086 5086 5086 5087 5088 5089 5090 5091 5093 5094 5096 5098 5100 5102